Погода в Александровке

Украина / Кировоградская область     48°08′20″N   32°53′26″E
темп.,
°C
ветер,
м/с
пор.,
м/с
влажн.,
%
обл.,
%
осадки,
мм/ч
давл.,
гПа
погр.,
м
13 апреля, вт
вт1300:00+9ююв2583100 0.0 1021167
03:00+9ююв2585100 0.0 1021176
06:00+8ююв2486100 0.0 1020125
09:00+10ююв347790 0.0 1021551
12:00+11ююв5674100 0.0 1021878
15:00+13ю4664100 0.1 10201356
18:00+13юз236979 0.1 1019734
21:00+10юз117990 0.3 101919
14 апреля, ср
ср1400:00+10юв247789 0.0 101896
03:00+7юз3390100 0.0 101845
06:00+7ююв2390100 0.0 101867
09:00+10ю347176 0.0 1017395
12:00+14ю455770 0.0 10161311
15:00+14ююв345775 0.3 10151246
18:00+14ююв3456100 0.4 10141054
21:00+12вюв3361100 0.4 101452
15 апреля, чт
чт1500:00+10ююв5970100 0.0 1013483
03:00+9юв3580100 0.0 1013271
06:00+8юв3589100 0.1 1012415
09:00+9юв4790100 0.3 1012491
12:00+9юв5891100 2.8 1012543
15:00+9юв3491100 4.6 1011333
18:00+8ю3789100 2.3 1011366
21:00+7ю6989100 2.4 1012537
16 апреля, пт
пт1600:00+5ююз588899 0.1 1012539
03:00+5ю5886100 0.1 1012768
06:00+5ю51189100 0.1 1012890
09:00+6ю698299 0.3 1012880
12:00+8ююз796798 0.1 10131274
15:00+7ююз697675 0.2 10141009
18:00+8ююз4672100 0.2 1015956
21:00+6ю228252 0.4 101653
17 апреля, сб
сб1700:00+4ю228610 0.0 101729
03:00+3ю229172 0.0 101819
06:00+3юв349197 0.0 101885
09:00+6юв358084 0.0 1019631
12:00+9ююз357298 0.1 10191011
15:00+11ююз346298 0.1 10201239
18:00+10зюз2268100 0.3 1020744
21:00+8с237797 0.3 102184